Regional Weather Roundup
Issued by NWS Mobile, AL

Home | Current Version | Previous Version | Text Only | Print | Product List | Glossary On
Versions: 1 2 3 4 5 6 7 8 9 10 11 12 13 14 15 16 17 18 19 20 21 22 23 24 25 26 27 28 29 30 31 32 33 34 35 36 37 38 39 40 41 42 43 44
000
ASUS44 KMOB 270510
RWRMOB
REGIONAL WEATHER ROUNDUP
NATIONAL WEATHER SERVICE MOBILE AL
1100 PM CST FRI DEC 26 2014

NOTE: "FAIR" INDICATES FEW OR NO CLOUDS BELOW 12,000 FEET WITH NO
      SIGNIFICANT WEATHER AND/OR OBSTRUCTIONS TO VISIBILITY.

  * THESE STATIONS ARE PART OF THE UNIVERSITY OF SOUTH ALABAMA
    MESONET AND ARE NOT UNDER NWS OR FAA QUALITY CONTROL.

ALZ061>064-270600-
COASTAL ALABAMA

CITY           SKY/WX    TMP DP  RH WIND       PRES   REMARKS
MOBILE REG APT CLOUDY    56  44  64 E13       30.19F
BROOKLEY FIELD CLOUDY    58  47  66 E14       30.20F
USA CAMPUS*      N/A     57  45  62 E7        30.19F
DOG RIVER*     NOT AVBL


CITY           SKY/WX    TMP DP  RH WIND       PRES   REMARKS
MOUNT VERNON*  NOT AVBL
SARALAND*      NOT AVBL
BAY MINETTE*   NOT AVBL
LOXLEY*          N/A     54  45  71 E9        30.21F
ROBERTSDALE*     N/A     55  45  67 SE8       30.20F
FAIRHOPE*        N/A     55  45  67 E12       30.19F
ELBERTA*         N/A     57  46  67 E7        30.19F
FOLEY*           N/A     45  43  93 CALM      30.22F
GRAND BAY*       N/A     57  48  72 E8        30.17F
DAUPHIN ISLND* NOT AVBL
BON SCOUR NWR* NOT AVBL
GULF SHORES    CLOUDY    57  49  74 E9        30.20F

$$

ALZ051>060-270600-
INTERIOR SOUTHWEST AND SOUTH CENTRAL ALABAMA

CITY           SKY/WX    TMP DP  RH WIND       PRES   REMARKS
GREENVILLE     CLEAR     46  38  73 SE3       30.23F
EVERGREEN      CLEAR     42  40  92 CALM      30.23F
CASTLEBERRY*   NOT AVBL
ATMORE*          N/A     52  45  76 SE12      30.23F
DIXIE*           N/A     43  43 100 CALM      30.19F
ANDALUSIA/OPP  CLEAR     45  40  82 SE5       30.24F
ANDALUSIA*       N/A     46  41  81 E7        30.23F
FLORALA APT    CLEAR     47  41  80 E5        30.26F
FLORALA*         N/A     45  43  93 CALM      30.22F

$$

FLZ001>006-270600-
WESTERN FLORIDA PANHANDLE

CITY           SKY/WX    TMP DP  RH WIND       PRES   REMARKS
PENSACOLA      MOCLDY    54  45  71 E6        30.21F
NAS PENSACOLA  MOCLDY    58  47  66 E12       30.21F
MILTON         LGT RAIN  50  41  71 E7        30.22F
WHTNG S FIELD  PTCLDY    53  42  66 SE8       30.22F


CITY           SKY/WX    TMP DP  RH WIND       PRES   REMARKS
WALNUT HILL*   NOT AVBL
JAY*           NOT AVBL
DUKE FIELD     CLEAR     47  42  80 E5        30.23F
CRESTVIEW      CLEAR     43  41  93 E5        30.25F
VALPARAISO     CLEAR     52  43  71 E7        30.23F
DESTIN         CLEAR     54  45  71 E7        30.23F

$$

MSZ076-079-270600-
INTERIOR SOUTHEAST MISSISSIPPI

CITY           SKY/WX    TMP DP  RH WIND       PRES   REMARKS
LEAKESVILLE*   NOT AVBL
AGRICOLA*      NOT AVBL

$$

MARINE OBSERVATIONS

STATION/POSITION TIME  TEMP    WIND        PRES    WAVE
                       AIR SEA DIR/SP/G            HT/PER
                 (UTC) (F)     (DEG/KT/KT) (MB)    (FT/S)
PASCAGOULA       0500   59     100/ 11/ 14 1021.6R
PETIT BOIS ISLND 0500   64     100/ 13/ 18 1021.8F
GRAND BAY        0400   59      90/ 13     1023.0S
KATRINA CUT      0418   59      90/ 17     1023.0
CEDAR POINT      0400   57     100/ 14     1022.0F
E DAUPHIN ISLAND 0500   61     100/ 14/ 16 1021.4F
MIDDLE BAY LIGHT 0400   58     110/ 17     1021.3F
USCG MOBILE BAY  0500   58 58  100/ 13/ 16 1021.3F
STATE DOCKS      0500   58 56              1022.2F
MEAHER PARK      0400   58     100/  9     1022.7F
WEEKS BAY        0400   57                   N/A
FORT MORGAN      0500   62     110/ 21/ 25 1021.2F
12 S ORANGE BCH  0500   65 68  100/ 19/ 23 1021.5F   4/ 5
PENSACOLA BAY    0500   59 60  120/  3/  7 1023.5F
64 S DAUPHIN ISL 0500   70 74  110/ 23/ 27 1020.7F   5/ 5

$$

SELECTED LOCATIONS ACROSS THE REGION

CITY           SKY/WX    TMP DP  RH WIND       PRES   REMARKS
NEW ORLEANS    CLOUDY    65  57  75 SE12      30.14R
GULFPORT       CLOUDY    61  52  72 E15G21    30.17S
PASCAGOULA AP  CLOUDY    59  48  67 E10       30.18S
PASCAGOULA*      N/A     57  48  72 SE8       30.18S
HATTIESBURG    CLOUDY    57  51  80 E6        30.19F
LAUREL         CLOUDY    55  48  76 SE8       30.19F
MERIDIAN       CLOUDY    52  43  71 SE9       30.20S
JACKSON        CLOUDY    56  48  74 SE12      30.17S
MONTGOMERY     CLEAR     42  37  82 E5        30.26F
TROY           CLEAR     39  36  89 CALM      30.28F
KINSTON*       NOT AVBL
GENEVA*          N/A     41  39  93 CALM      30.29F
ASHFORD*         N/A     46  41  81 E7        30.23F
DOTHAN         CLEAR     48  41  76 E8        30.30F
PANAMA CITY    CLEAR     49  43  80 NE6         N/A

$$



USA.gov is the U.S. government's official web portal to all federal, state and local government web resources and services.